Flight Track Log - Related Links

Times and Time Zones

All times are in EDT time to prevent confusion due to time zone crossing. See the LXJ437 flight status page for this flight to view local times or setup timezone preferences in your user account.

Time Position Orientation Groundspeed Altitude Reporting Facility
EDT Latitude Longitude Course Direction KTS MPH feet Rate Location/Type
Thu 12:33:50 PM 32.5833 -117.0000 270° West 145 167 1,600  Level Southern California TRACON
Thu 12:34:50 PM 32.5833 -117.0667 270° West 211 243 4,600 3,250 Climbing Southern California TRACON
Thu 12:35:50 PM 32.6000 -117.1333 287° West 219 252 8,100 2,650 Climbing Southern California TRACON
Thu 12:36:50 PM 32.6167 -117.2000 287° West 234 269 9,900 1,226 Climbing Southern California TRACON
Thu 12:37:23 PM 32.6250 -117.2292 289° West 239 275 10,000 63 Climbing Los Angeles Center
Thu 12:38:25 PM 32.6719 -117.3144 303° West 256 295 10,000  Level Los Angeles Center
Thu 12:39:27 PM 32.7092 -117.3811 304° West 246 283 10,000  Level Los Angeles Center
Thu 12:40:29 PM 32.7597 -117.4311 320° Northwest 240 276 10,000 48 Level Los Angeles Center
Thu 12:41:31 PM 32.8428 -117.5003 325° Northwest 320 368 10,100 48 Climbing Los Angeles Center
Thu 12:42:33 PM 32.9278 -117.5731 324° Northwest 366 421 10,100  Level Los Angeles Center
Thu 12:43:35 PM 33.0136 -117.6492 323° Northwest 381 438 10,100  Level Los Angeles Center
Thu 12:44:37 PM 33.1000 -117.7231 324° Northwest 382 440 10,100  Level Los Angeles Center
Thu 12:45:39 PM 33.1844 -117.7981 323° Northwest 380 437 10,100 -528 Level Los Angeles Center
Thu 12:46:42 PM 33.2503 -117.8533 325° Northwest 305 351 9,000 -1,632 Descending Los Angeles Center
Thu 12:47:44 PM 33.3236 -117.9147 325° Northwest 273 314 6,700 -1,403 Descending Los Angeles Center
Thu 12:48:46 PM 33.3831 -117.9650 325° Northwest 265 305 6,100 -339 Descending Los Angeles Center
Thu 12:49:48 PM 33.4442 -118.0183 324° Northwest 269 310 6,000  Descending Los Angeles Center
Thu 12:50:50 PM 33.4933 -118.0606 324° Northwest 240 276 6,100 -194 Climbing Los Angeles Center
Thu 12:51:52 PM 33.5439 -118.0772 345° North 217 250 5,600 -871 Descending Los Angeles Center
Thu 12:52:54 PM 33.6053 -118.0428 25° Northeast 208 239 4,300 -774 Descending Los Angeles Center
Thu 12:53:56 PM 33.6489 -118.0036 37° Northeast 200 230 4,000 -99 Descending Los Angeles Center
Thu 12:54:55 PM 33.7000 -117.9667 31° Northeast 204 235 4,100 50 Climbing Southern California TRACON
Thu 12:55:55 PM 33.7333 -117.9167 51° Northeast 189 217 4,100 -500 Level Southern California TRACON
Thu 12:56:55 PM 33.7667 -117.8833 40° Northeast 181 208 3,100 -1,200 Descending Southern California TRACON
Thu 12:57:55 PM 33.7667 -117.8333 90° East 172 198 1,700 -1,000 Descending Southern California TRACON
Thu 12:58:55 PM 33.7333 -117.8333 180° South 127 146 1,100 -600 Descending Southern California TRACON
Thu 12:59:55 PM 33.7000 -117.8500 203° Southwest 126 145 500 -600 Descending Southern California TRACON

Login

Don't have an account? Register now (free) for customized features, flight alerts, and more!